[[{"header":{"parameterUnit":"m.s-1","parameterCategory":1,"la1":30.2991,"la2":30.254,"lo1":-89.0895,"lo2":-89.0444,"dy":0.0017,"dx":0.0017,"nx":28,"ny":28,"refTime":"2024-07-26T21:00:00:Z","depth":0,"parameterNumber":2,"parameterNumberName":"U-component_of_WINDS"},"data":[0,0,0,0,0,0,0,0,0,0,0,0,0,0,0,0,0,0,0,0,0,0,0,0,0,0,0,0,0,0,0,0,0,0,0,0,0,0,0,0,0,0,0,0,0,0,0,0,0,0,0,0,0,0,0,0,0,0,-0.2078,-0.2078,0,-0.2093,-0.2094,-0.2094,-0.2119,-0.2119,-0.212,-0.212,-0.2136,-0.2136,-0.2136,0,0,0,0,0,0,0,0,0,0,0,0,0,-0.2068,-0.2068,-0.2078,-0.2078,-0.2078,-0.2093,-0.2094,-0.2094,-0.2119,-0.2119,-0.212,-0.212,-0.2136,-0.2136,-0.2136,0,0,0,0,0,0,0,0,0,0,0,0,0,-0.2077,-0.2068,-0.2078,-0.2092,-0.2094,-0.2093,-0.2094,-0.2094,-0.2118,-0.2119,-0.212,-0.212,-0.2136,-0.2136,-0.2136,-0.2123,0,0,-0.2137,-0.2137,0,0,0,0,0,0,0,0,-0.2077,-0.2077,-0.209,-0.2091,-0.2093,-0.2105,-0.2096,-0.2104,-0.2118,-0.2109,-0.212,-0.2121,-0.2125,-0.2126,-0.2128,-0.2124,-0.2125,-0.2137,-0.2137,-0.2137,-0.2137,0,0,0,0,0,0,0,-0.2076,-0.2077,-0.2084,-0.209,-0.2092,-0.2098,-0.21,-0.2098,-0.2113,-0.211,-0.2112,-0.2113,-0.2126,-0.2128,-0.2128,-0.2125,-0.2137,-0.2137,-0.2137,-0.2137,-0.211,-0.211,0,0,0,0,0,0,-0.2073,-0.2076,-0.2083,-0.2084,-0.2086,-0.2097,-0.21,-0.21,-0.2113,-0.2116,-0.2113,-0.2114,-0.2127,-0.2128,-0.2129,-0.2114,-0.2137,-0.2137,-0.2137,-0.2111,-0.211,-0.211,0,0,0,0,0,0,-0.2073,-0.2074,-0.2083,-0.2081,-0.2082,-0.2097,-0.2097,-0.21,-0.2102,-0.2115,-0.2118,-0.2111,-0.2128,-0.2129,-0.2124,-0.2115,-0.2137,-0.2137,-0.2112,-0.2111,-0.211,-0.2084,0,0,0,0,0,0,-0.2073,-0.2073,-0.2069,-0.208,-0.2082,-0.2078,-0.2097,-0.21,-0.2102,-0.2104,-0.2115,-0.2117,-0.2129,-0.2124,-0.2124,-0.2115,-0.2137,-0.2113,-0.2112,-0.211,-0.2086,-0.2082,-0.2079,0,0,0,0,0,-0.2072,-0.2061,-0.2068,-0.2069,-0.2077,-0.2077,-0.2078,-0.2091,-0.2101,-0.2096,-0.2105,-0.2117,-0.2116,-0.2123,-0.2124,-0.2115,-0.2114,-0.2112,-0.211,-0.2087,-0.2083,-0.2079,0,0,0,0,0,0,-0.2048,-0.2063,-0.2071,-0.2063,-0.2069,-0.2081,-0.2076,-0.2086,-0.2089,-0.2091,-0.2107,-0.211,-0.2103,-0.2108,-0.2117,-0.2102,-0.2117,-0.2115,-0.2099,-0.2095,-0.2092,-0.209,-0.2137,0,0,0,0,0,-0.2042,-0.2041,-0.2054,-0.2046,-0.2048,-0.2061,-0.2062,-0.2071,-0.2078,-0.208,-0.2089,-0.2094,-0.2095,-0.2095,-0.2097,-0.2087,-0.2089,-0.2081,-0.2077,-0.2075,-0.2073,-0.2067,-0.2063,-0.2104,-0.2104,-0.2104,0,0,-0.2029,-0.2037,-0.2035,-0.2041,-0.2046,-0.2045,-0.2063,-0.2061,-0.206,-0.208,-0.2076,-0.2082,-0.2089,-0.2082,-0.2079,-0.2086,-0.2062,-0.2072,-0.207,-0.207,-0.2065,-0.2061,-0.2058,-0.2103,-0.2103,-0.2104,0,0,-0.2005,-0.2011,-0.2004,-0.2009,-0.2017,-0.2025,-0.2024,-0.2035,-0.2039,-0.2036,-0.205,-0.2049,-0.2051,-0.2055,-0.2057,-0.2034,-0.2045,-0.2034,-0.2016,-0.2011,-0.2007,-0.2005,-0.1996,-0.1992,-0.2032,-0.2032,-0.2032,0,-0.1988,-0.1986,-0.2,-0.1996,-0.1998,-0.2016,-0.2009,-0.2013,-0.2021,-0.2022,-0.203,-0.2032,-0.2038,-0.2031,-0.2025,-0.2027,-0.2025,-0.2033,-0.2007,-0.2004,-0.2002,-0.1993,-0.199,-0.2031,-0.2031,-0.2031,-0.2031,0,-0.1965,-0.1963,-0.1957,-0.1964,-0.1965,-0.196,-0.1973,-0.1972,-0.1981,-0.1989,-0.1984,-0.1992,-0.1996,-0.1995,-0.2004,-0.1989,-0.1993,-0.2004,-0.2018,-0.1996,-0.1988,-0.1985,-0.2029,-0.2029,-0.2029,-0.203,0,0,-0.1927,-0.194,-0.1937,-0.194,-0.1949,-0.1948,-0.1944,-0.1947,-0.1946,-0.195,-0.1947,-0.1947,-0.1957,-0.1959,-0.1969,-0.1964,-0.1944,-0.1975,-0.1976,-0.1969,-0.1927,-0.1919,-0.1915,-0.1951,-0.1951,-0.195,-0.1926,0,-0.1904,-0.1897,-0.1909,-0.1899,-0.1897,-0.1914,-0.191,-0.1915,-0.1922,-0.1921,-0.1929,-0.1929,-0.1942,-0.1943,-0.1939,-0.1947,-0.1936,-0.1949,-0.1948,-0.1948,-0.1945,-0.1911,-0.1903,-0.188,-0.1923,-0.1923,-0.1923,0,-0.1877,-0.188,-0.1869,-0.1878,-0.1878,-0.1874,-0.1877,-0.1877,-0.1883,-0.1888,-0.189,-0.1901,-0.1897,-0.1911,-0.1906,-0.1915,-0.1915,-0.1919,-0.1918,-0.1918,-0.1934,-0.191,-0.1873,-0.1869,-0.1918,-0.1919,-0.1919,0,-0.185,-0.185,-0.1844,-0.1846,-0.1857,-0.1853,-0.1858,-0.1864,-0.1865,-0.1867,-0.1868,-0.187,-0.1871,-0.1872,-0.1884,-0.1893,-0.1876,-0.1892,-0.188,-0.188,-0.1876,-0.1876,-0.1838,-0.1877,-0.1877,-0.1877,-0.1877,0,-0.1823,-0.1816,-0.1832,-0.1828,-0.1821,-0.1834,-0.1826,-0.1832,-0.1837,-0.1835,-0.1849,-0.1846,-0.1862,-0.186,-0.1869,-0.1863,-0.1863,-0.1867,-0.187,-0.1866,-0.1865,-0.1866,-0.1868,-0.1876,-0.1876,-0.1876,-0.1876,0,-0.1792,-0.1802,-0.1796,-0.1806,-0.1808,-0.1802,-0.1811,-0.1807,-0.1815,-0.1811,-0.1811,-0.1823,-0.1822,-0.1833,-0.1835,-0.1841,-0.183,-0.1836,-0.1828,-0.183,-0.1818,-0.1819,-0.1779,-0.1774,-0.1816,-0.1815,-0.1815,0,-0.1774,-0.1769,-0.1778,-0.1777,-0.178,-0.1779,-0.1779,-0.1792,-0.1792,-0.1797,-0.1793,-0.1793,-0.1794,-0.1792,-0.1801,-0.1802,-0.1807,-0.1793,-0.1808,-0.1804,-0.1807,-0.1807,-0.1806,-0.179,-0.179,-0.1789,-0.1789,0,-0.1742,-0.1747,-0.1747,-0.1748,-0.1748,-0.175,-0.1753,-0.1751,-0.1765,-0.1764,-0.1763,-0.1763,-0.1765,-0.1764,-0.1767,-0.1771,-0.1782,-0.1784,-0.1781,-0.1778,-0.1773,-0.1775,-0.182,-0.1785,-0.1785,-0.1786,-0.1786,-0.1786,-0.1717,-0.1713,-0.1718,-0.1717,-0.172,-0.1722,-0.1719,-0.1726,-0.1725,-0.1727,-0.1734,-0.1732,-0.1737,-0.1741,-0.1744,-0.1743,-0.175,-0.1746,-0.1745,-0.1744,-0.1741,-0.1773,-0.1743,-0.1743,-0.1743,-0.1743,-0.1744,0,-0.1685,-0.1689,-0.1688,-0.1691,-0.169,-0.17,-0.1703,-0.1702,-0.1699,-0.1703,-0.1703,-0.1701,-0.1701,-0.1709,-0.171,-0.1707,-0.1712,-0.1706,-0.1707,-0.1707,-0.1735,-0.1737,-0.1702,-0.1702,-0.1702,-0.1702,-0.1702,-0.1702,-0.1669,-0.1662,-0.1667,-0.1662,-0.1666,-0.1663,-0.1664,-0.1666,-0.1669,-0.1666,-0.1666,-0.1671,-0.1676,-0.1677,-0.1677,-0.1679,-0.1679,-0.1672,-0.1676,-0.1702,-0.1706,-0.1709,-0.1711,-0.1671,-0.1671,-0.1648,-0.1648,-0.1647]},{"header":{"parameterUnit":"m.s-1","parameterCategory":1,"la1":30.2991,"la2":30.254,"lo1":-89.0895,"lo2":-89.0444,"dy":0.0017,"dx":0.0017,"nx":28,"ny":28,"refTime":"2024-07-26T21:00:00:Z","depth":0,"parameterNumber":3,"parameterNumberName":"V-component_of_WINDS"},"data":[0,0,0,0,0,0,0,0,0,0,0,0,0,0,0,0,0,0,0,0,0,0,0,0,0,0,0,0,0,0,0,0,0,0,0,0,0,0,0,0,0,0,0,0,0,0,0,0,0,0,0,0,0,0,0,0,0,0,2.6335,2.6334,0,2.6276,2.6275,2.6274,2.6237,2.6236,2.6236,2.6236,2.617,2.6169,2.6167,0,0,0,0,0,0,0,0,0,0,0,0,0,2.6411,2.641,2.6335,2.6334,2.6334,2.6276,2.6275,2.6274,2.6237,2.6236,2.6236,2.6236,2.6171,2.6169,2.6167,0,0,0,0,0,0,0,0,0,0,0,0,0,2.6368,2.641,2.6335,2.6308,2.6305,2.6276,2.6275,2.6274,2.6237,2.6236,2.6236,2.6236,2.6172,2.6169,2.6167,2.6159,0,0,2.616,2.6159,0,0,0,0,0,0,0,0,2.637,2.6365,2.6313,2.631,2.6306,2.6263,2.6278,2.6235,2.6237,2.6262,2.6236,2.6236,2.6201,2.6197,2.6186,2.6156,2.6153,2.616,2.6158,2.6157,2.6157,0,0,0,0,0,0,0,2.6373,2.6367,2.6312,2.6312,2.6308,2.6297,2.6291,2.627,2.6234,2.626,2.6257,2.6251,2.6199,2.6188,2.6184,2.6152,2.616,2.6158,2.6156,2.6155,2.6112,2.6112,0,0,0,0,0,0,2.6381,2.637,2.6313,2.631,2.6338,2.6296,2.6289,2.6277,2.6234,2.6228,2.6251,2.625,2.6192,2.6187,2.6182,2.6169,2.6157,2.6155,2.6154,2.6112,2.6112,2.6113,0,0,0,0,0,0,2.6383,2.6377,2.6316,2.6339,2.6331,2.6295,2.6283,2.6276,2.6265,2.6228,2.6221,2.6247,2.6192,2.6185,2.6165,2.6167,2.6154,2.6152,2.6112,2.6112,2.6112,2.6145,0,0,0,0,0,0,2.6385,2.6377,2.6375,2.6339,2.633,2.6302,2.6283,2.6275,2.6262,2.6259,2.6222,2.6215,2.6191,2.6169,2.6163,2.6163,2.615,2.6111,2.6112,2.6112,2.6144,2.6146,2.6149,0,0,0,0,0,2.6388,2.6386,2.6375,2.6369,2.6326,2.6302,2.6296,2.627,2.6262,2.6259,2.6235,2.6216,2.6168,2.6167,2.616,2.616,2.6111,2.6112,2.6112,2.6142,2.6146,2.6149,0,0,0,0,0,0,2.6421,2.6381,2.6368,2.6355,2.6332,2.6296,2.6291,2.6275,2.6253,2.6251,2.6218,2.6209,2.6193,2.6174,2.6175,2.6149,2.6137,2.6136,2.6162,2.6165,2.6168,2.6173,2.6148,0,0,0,0,0,2.6427,2.6412,2.6377,2.6368,2.6358,2.6327,2.6315,2.6297,2.6272,2.6261,2.6236,2.6211,2.619,2.6176,2.6155,2.6141,2.6132,2.6137,2.6139,2.6142,2.6141,2.6132,2.6134,2.6114,2.6114,2.6114,0,0,2.6438,2.6415,2.6407,2.6374,2.6355,2.6339,2.6319,2.6303,2.629,2.6258,2.6239,2.6219,2.6189,2.6172,2.6163,2.6156,2.6145,2.6142,2.6145,2.6143,2.6133,2.6134,2.6136,2.6115,2.6115,2.6115,0,0,2.6451,2.6432,2.6423,2.6404,2.6375,2.6355,2.6352,2.6318,2.6305,2.6285,2.626,2.6244,2.6209,2.6188,2.6173,2.6178,2.616,2.6172,2.6185,2.6177,2.6178,2.6179,2.6181,2.6182,2.6172,2.6172,2.6172,0,2.6469,2.6446,2.642,2.6405,2.6391,2.6363,2.6353,2.6335,2.63,2.6291,2.6283,2.6238,2.6216,2.6194,2.6195,2.6184,2.6179,2.6176,2.618,2.6181,2.6182,2.6183,2.6184,2.6173,2.6173,2.6173,2.6173,0,2.6469,2.6453,2.6448,2.6417,2.6402,2.639,2.6361,2.6348,2.6332,2.6311,2.6291,2.6263,2.6235,2.6228,2.6211,2.6203,2.62,2.6187,2.6174,2.6186,2.6186,2.6186,2.6176,2.6175,2.6175,2.6174,0,0,2.65,2.6456,2.6454,2.644,2.6406,2.6393,2.6378,2.6353,2.6343,2.632,2.6306,2.6277,2.6265,2.6248,2.6228,2.622,2.6225,2.6208,2.6206,2.6212,2.6214,2.6224,2.6225,2.6213,2.6213,2.6213,2.6217,0,2.6508,2.6484,2.6459,2.6442,2.6427,2.64,2.6387,2.6365,2.6345,2.6328,2.6305,2.6285,2.6271,2.626,2.6251,2.6227,2.6225,2.6226,2.6199,2.6199,2.6208,2.6226,2.6236,2.6241,2.6217,2.6217,2.6217,0,2.6514,2.6494,2.6476,2.6444,2.6436,2.6426,2.64,2.6385,2.6358,2.6344,2.6325,2.6304,2.6286,2.6275,2.625,2.6251,2.6238,2.6224,2.6224,2.622,2.6209,2.6222,2.6242,2.6243,2.6217,2.6217,2.6217,0,2.6539,2.6507,2.6492,2.6481,2.6443,2.6436,2.6419,2.6392,2.6378,2.6356,2.6346,2.6321,2.6307,2.6287,2.626,2.6254,2.6237,2.6223,2.6223,2.6224,2.6221,2.6221,2.6239,2.6213,2.6213,2.6213,2.6213,0,2.6551,2.6541,2.6503,2.6494,2.6481,2.6453,2.6441,2.6422,2.6398,2.6383,2.6358,2.6344,2.6309,2.6291,2.6269,2.6251,2.6244,2.6232,2.6226,2.6234,2.6236,2.6225,2.6224,2.6213,2.6213,2.6213,2.6213,0,2.6576,2.6551,2.6533,2.6499,2.649,2.6482,2.6452,2.6442,2.6421,2.6403,2.6397,2.6363,2.634,2.6311,2.6278,2.6264,2.6248,2.6239,2.6258,2.6254,2.6256,2.6256,2.6267,2.6267,2.6242,2.6242,2.6242,0,2.6585,2.6577,2.6543,2.6532,2.6517,2.65,2.6486,2.6457,2.6444,2.6412,2.6405,2.6381,2.636,2.6324,2.6296,2.6271,2.6261,2.6267,2.6257,2.6265,2.6261,2.6262,2.626,2.6269,2.6269,2.627,2.627,0,2.6604,2.6592,2.6574,2.6551,2.6536,2.6516,2.6495,2.6488,2.6454,2.644,2.6417,2.6401,2.6369,2.6344,2.6316,2.6297,2.6277,2.6273,2.6272,2.628,2.6291,2.6285,2.6264,2.6273,2.6273,2.6273,2.6272,2.6272,2.6621,2.6613,2.6587,2.6568,2.6549,2.6531,2.6519,2.6497,2.6478,2.6451,2.6434,2.6412,2.6384,2.6344,2.6326,2.6307,2.63,2.6298,2.6297,2.6297,2.63,2.6295,2.6302,2.6301,2.6301,2.6301,2.6301,0,2.6638,2.6621,2.6603,2.6576,2.656,2.6545,2.6521,2.6508,2.649,2.6466,2.6447,2.642,2.6397,2.6367,2.6341,2.6331,2.6322,2.6325,2.6325,2.6321,2.6308,2.6312,2.6333,2.6333,2.6333,2.6333,2.6333,2.6333,2.6645,2.663,2.6615,2.659,2.6572,2.6552,2.6539,2.6521,2.6502,2.6474,2.6455,2.6437,2.641,2.6382,2.6359,2.635,2.6342,2.6348,2.6337,2.6325,2.6322,2.632,2.6323,2.6347,2.6347,2.6352,2.6352,2.6352]}]]